Flag for Austria Weather past 2 weeks in Bruck an der Leitha, Lower Austria, Austria

Now
59 °F

Rain showers. Partly sunny.


Feels Like: N/A
Forecast: 61 / 74 °F
Wind: N/A

Location: Wien / Schwechat-Flughafen

Current Time: Sep 3, 2015 at 9:18:15 AM

Latest Report: Sep 3, 2015 at 8:00 AM


Visibility: 7 mi

Pressure: 30.00 "Hg

Humidity: 86%

Dew point: 54 °F

Location of Bruck an der LeithaLocation

Historic Weather in Bruck an der Leitha — Graph

°F

Bruck an der Leitha temperature yesterday

Maximum temperature yesterday: 79 °F (at 12:00 AM)
Minimum temperature yesterday: 63 °F (at 9:00 AM)
Average temperature yesterday: 70 °F

Past Weeks' High & Low Weather Summary

 TemperatureHumidityPressure
High93 °F (Aug 31, 3:00 PM)99% (Aug 28, 7:00 AM)30.24 "Hg (Aug 28, 7:00 AM)
Low51 °F (Aug 26, 5:00 AM)19% (Aug 31, 5:00 PM)29.70 "Hg (Sep 1, 8:00 PM)
Average70 °F67%30.02 "Hg
* Reported Aug 19 8:00 AM — Sep 3 8:00 AM, Bruck an der Leitha, Weather by CustomWeather, © 2015

Note: Actual official high and low records may vary slightly from our data, if they occured in-between our weather recording intervals... More about our weather records

Advertising

Bruck an der Leitha weather history for previous 24 hours

 ConditionsComfort  
Time TempWeatherWind HumidityBarometerVisibility
8:00 AM
Thu, Sep 3
59 °FRain showers. Partly sunny.N/A86%30.00 "Hg7 mi
7:00 AM56 °FScattered clouds.N/A92%29.99 "Hg16 mi
6:00 AM56 °FPassing clouds.N/A91%30.00 "Hg8 mi
4:00 AM57 °FPassing clouds.5 mph87%30.00 "Hg28 mi
3:00 AM59 °FPassing clouds.5 mph86%30.01 "Hg22 mi
2:00 AM60 °FPassing clouds.5 mph91%30.00 "Hg14 mi
1:00 AM61 °FOvercast.5 mph90%30.00 "Hg18 mi
12:00 AM61 °FOvercast.5 mph90%30.00 "Hg16 mi
10:00 PM
Wed, Sep 2
64 °FOvercast.3 mph84%29.99 "Hg17 mi
9:00 PM63 °FPassing clouds.N/A83%29.98 "Hg25 mi
8:00 PM64 °FOvercast.N/A90%29.96 "Hg25 mi
7:00 PM65 °FHeavy rain. Overcast.N/A82%29.97 "Hg4 mi
6:00 PM70 °FOvercast.N/A60%29.95 "Hg25 mi
5:00 PM71 °FOvercast.6 mph51%29.94 "Hg31 mi
4:00 PM71 °FOvercast.6 mph49%29.94 "Hg22 mi
3:00 PM72 °FOvercast.6 mph52%29.96 "Hg28 mi
2:00 PM72 °FPartly sunny.7 mph54%29.97 "Hg22 mi
1:00 PM72 °FPartly sunny.8 mph54%29.98 "Hg17 mi
12:00 PM71 °FPartly sunny.8 mph56%30.00 "Hg19 mi
11:00 AM66 °FOvercast.8 mph68%30.01 "Hg22 mi
10:00 AM64 °FOvercast.8 mph75%30.00 "Hg22 mi
9:00 AM63 °FOvercast.12 mph79%29.99 "Hg28 mi
Weather by CustomWeather, © 2015

See weather overviewHow to use our weather pages